Skip Navigation Links
NOAA logo - Click to go to the NOAA homepage
NOAA's National Weather Service
Alaska Aviation Weather Unit
  NWS logo - Click to go to the NWS homepage
Left Navbar Graphic     09 AKDT = 17 GMT

   
NOAA is celebrating 200 years of science, service, and stewardship. Visit the NOAA 200th celebration Web site to learn more.
USA.gov is the U.S. Government's official Web portal to all Federal, state and local government Web resources and services.
Facebook
NWS on Facebook

Important Change Regarding the AAWU Web Presence

 

Over the last several months, the AAWU has been working to navigate its webpages to a nationally supported server. Security, as well as other needs, have necessitated the change.  In the process, we have made an effort to enhance the functionality of our website, as well as some of our products. As of June 20, 2017, aawu.arh.noaa.gov will be discontinued. The new AAWU web address is weather.gov/aawu. It is now live and will run in-parallel with the old site until it is discontinued. Please send any feedback or questions regarding the new webpages to nws.ar.aawu.webauthors@noaa.gov.  Thank you for your patience during this time of transition.
AAWU Home :: Display TAF Add Bookmark
METAR PAMR 271153Z 00000KT 10SM SCT065 BKN080 OVC110 05/02 A3011 RMK AO2
     SLP198 VIRGA E AND S 60000 T00500017 10067 20039 58000=

METAR PAMR 271253Z 32003KT 10SM FEW065 BKN080 BKN130 BKN200 06/00 A3011
     RMK AO2 SLP198 VIRGA SE T00560000=

METAR PAMR 271353Z VRB03KT 10SM SCT070 BKN120 04/M01 A3011 RMK AO2
 SLP198 VIRGA E-S T00441011=

METAR PAMR 271453Z 29008KT 10SM -RA FEW048 BKN060 BKN075 BKN130 05/01
     A3011 RMK AO2 RAB52 SLP198 P0000 60000 T00500011 56000=

METAR PAMR 271553Z 29004KT 10SM -RA BKN075 OVC090 06/01 A3011 RMK AO2
     SLP198 P0000 T00610006=

METAR PAMR 271653Z 34004KT 10SM -RA OVC085 06/00 A3011 RMK AO2
 SLP198 P0000 T00610000=


NOAA's National Weather Service
Alaska Aviation Weather Unit
6930 Sand Lake Road
Anchorage, AK 99502-1845
Disclaimer
Credits
Glossary
Privacy Policy
About Us
Career Opportunities
Contact AAWU Internet Services Site last modified: April, 17th 2012